QPF
0.00 0.00 0.00 0.00 0.00 0.00 0.00 0.00 0.00 0.00 0.00 0.00 0.00 0.00 0.00 0.00 0.00 0.00 0.00 0.00 0.00 0.00 0.00 0.00 0.00 0.00 0.00 0.00 0.00 0.00 0.00 0.00 0.00 0.01 0.01 0.01 0.01 0.01 0.00 0.01 0.01 0.02 0.03
0.00 0.00 0.00 0.00 0.00 0.00 0.00 0.00 0.00 0.00 0.00 0.00 0.00 0.00 0.00 0.00 0.00 0.00 0.00 0.00 0.00 0.00 0.00 0.00 0.00 0.00 0.00 0.00 0.00 0.00 0.00 0.00 0.00 0.01 0.01 0.01 0.01 0.00 0.00 0.00 0.00 0.00 0.00
0.00 0.00 0.00 0.00 0.00 0.00 0.00 0.00 0.00 0.00 0.00 0.00 0.00 0.00 0.00 0.00 0.00 0.00 0.00 0.00 0.00 0.00 0.00 0.00 0.00 0.00 0.00 0.00 0.00 0.00 0.00 0.00 0.00 0.00 0.01 0.01 0.02 0.01 0.00 0.00 0.00 0.00 0.00
0.00 0.00 0.00 0.00 0.00 0.00 0.00 0.00 0.00 0.00 0.00 0.00 0.00 0.00 0.00 0.00 0.00 0.00 0.00 0.00 0.00 0.00 0.00 0.00 0.00 0.00 0.00 0.00 0.00 0.00 0.00 0.00 0.00 0.00 0.00 0.00 0.01 0.01 0.01 0.01 0.00 0.00 0.00
0.00 0.00 0.00 0.00 0.00 0.00 0.00 0.00 0.00 0.00 0.00 0.00 0.00 0.00 0.00 0.00 0.00 0.00 0.00 0.00 0.00 0.00 0.00 0.00 0.00 0.00 0.00 0.00 0.00 0.00 0.00 0.00 0.00 0.00 0.00 0.00 0.00 0.01 0.01 0.01 0.00 0.00 0.00
0.00 0.00 0.00 0.00 0.00 0.00 0.00 0.00 0.00 0.00 0.00 0.00 0.00 0.00 0.00 0.00 0.00 0.00 0.00 0.00 0.00 0.00 0.00 0.00 0.00 0.00 0.00 0.00 0.00 0.00 0.00 0.00 0.00 0.00 0.00 0.00 0.00 0.00 0.01 0.00 0.00 0.00 0.00
0.00 0.00 0.00 0.00 0.00 0.00 0.00 0.00 0.00 0.00 0.00 0.00 0.00 0.00 0.00 0.00 0.00 0.00 0.00 0.00 0.00 0.00 0.00 0.00 0.00 0.00 0.00 0.00 0.00 0.00 0.00 0.00 0.00 0.00 0.00 0.00 0.00 0.00 0.01 0.00 0.00 0.01 0.01
0.00 0.00 0.00 0.00 0.00 0.00 0.00 0.00 0.00 0.00 0.00 0.00 0.00 0.00 0.00 0.00 0.00 0.00 0.00 0.00 0.00 0.00 0.00 0.00 0.00 0.00 0.00 0.00 0.00 0.00 0.00 0.00 0.00 0.00 0.00 0.00 0.00 0.00 0.01 0.00 0.00 0.01 0.00
0.00 0.00 0.00 0.00 0.00 0.00 0.00 0.00 0.00 0.00 0.00 0.00 0.00 0.00 0.00 0.00 0.00 0.00 0.00 0.00 0.00 0.00 0.00 0.00 0.00 0.00 0.00 0.00 0.00 0.00 0.00 0.00 0.00 0.00 0.00 0.00 0.00 0.00 0.00 0.00 0.00 0.00 0.00
0.00 0.00 0.00 0.00 0.00 0.00 0.00 0.00 0.00 0.00 0.00 0.00 0.00 0.00 0.00 0.00 0.00 0.00 0.00 0.00 0.00 0.00 0.00 0.00 0.00 0.00 0.00 0.00 0.00 0.00 0.00 0.00 0.00 0.00 0.00 0.00 0.00 0.00 0.00 0.00 0.00 0.00 0.00
0.00 0.00 0.00 0.00 0.00 0.00 0.00 0.00 0.00 0.00 0.00 0.00 0.00 0.00 0.00 0.00 0.00 0.00 0.00 0.00 0.00 0.00 0.00 0.00 0.00 0.00 0.00 0.00 0.00 0.00 0.00 0.00 0.00 0.00 0.00 0.00 0.00 0.00 0.00 0.00 0.00 0.00 0.00
0.00 0.00 0.00 0.00 0.00 0.00 0.00 0.00 0.00 0.00 0.00 0.00 0.00 0.00 0.00 0.00 0.00 0.00 0.00 0.00 0.00 0.00 0.00 0.00 0.00 0.00 0.00 0.00 0.00 0.00 0.00 0.00 0.00 0.00 0.00 0.00 0.00 0.00 0.00 0.00 0.00 0.00 0.00
0.00 0.00 0.00 0.00 0.00 0.00 0.00 0.00 0.00 0.00 0.00 0.00 0.00 0.00 0.00 0.00 0.00 0.00 0.00 0.00 0.00 0.00 0.00 0.00 0.00 0.00 0.00 0.00 0.00 0.00 0.00 0.00 0.00 0.00 0.00 0.00 0.00 0.00 0.00 0.00 0.00 0.00 0.00
0.00 0.00 0.00 0.00 0.00 0.00 0.00 0.00 0.00 0.00 0.00 0.00 0.00 0.00 0.00 0.00 0.00 0.00 0.00 0.00 0.00 0.00 0.00 0.00 0.00 0.00 0.00 0.00 0.00 0.00 0.00 0.00 0.00 0.00 0.00 0.00 0.00 0.00 0.00 0.00 0.00 0.00 0.00
0.00 0.00 0.00 0.00 0.00 0.00 0.00 0.00 0.00 0.00 0.00 0.00 0.00 0.00 0.00 0.00 0.00 0.00 0.00 0.00 0.00 0.00 0.00 0.00 0.00 0.00 0.00 0.00 0.00 0.00 0.00 0.00 0.00 0.00 0.00 0.00 0.00 0.00 0.00 0.00 0.00 0.00 0.00
0.00 0.00 0.00 0.00 0.00 0.00 0.00 0.00 0.00 0.00 0.00 0.00 0.00 0.00 0.00 0.00 0.00 0.00 0.00 0.00 0.00 0.00 0.00 0.00 0.00 0.00 0.00 0.00 0.00 0.00 0.00 0.00 0.00 0.00 0.00 0.00 0.00 0.00 0.00 0.00 0.00 0.00 0.00
0.00 0.00 0.00 0.00 0.00 0.00 0.00 0.00 0.00 0.00 0.00 0.00 0.00 0.00 0.00 0.00 0.00 0.00 0.00 0.00 0.00 0.00 0.00 0.00 0.00 0.00 0.00 0.00 0.00 0.00 0.00 0.00 0.00 0.00 0.00 0.00 0.00 0.00 0.00 0.00 0.00 0.00 0.00
0.00 0.00 0.00 0.00 0.00 0.00 0.00 0.00 0.00 0.00 0.00 0.00 0.00 0.00 0.00 0.00 0.00 0.00 0.00 0.00 0.00 0.00 0.00 0.00 0.00 0.00 0.00 0.00 0.00 0.00 0.00 0.00 0.00 0.00 0.00 0.00 0.00 0.00 0.00 0.00 0.00 0.00 0.00
0.00 0.00 0.00 0.00 0.00 0.00 0.00 0.00 0.00 0.00 0.00 0.00 0.00 0.00 0.00 0.00 0.00 0.00 0.00 0.00 0.00 0.00 0.00 0.00 0.00 0.00 0.00 0.00 0.00 0.00 0.00 0.00 0.00 0.00 0.00 0.00 0.00 0.00 0.00 0.00 0.00 0.00 0.00
0.00 0.00 0.00 0.00 0.00 0.00 0.00 0.00 0.00 0.00 0.00 0.00 0.00 0.00 0.00 0.00 0.00 0.00 0.00 0.00 0.00 0.00 0.00 0.00 0.00 0.00 0.00 0.00 0.00 0.00 0.00 0.00 0.00 0.00 0.00 0.00 0.00 0.00 0.00 0.00 0.00 0.00 0.00
0.00 0.00 0.00 0.00 0.00 0.00 0.00 0.00 0.00 0.00 0.00 0.00 0.00 0.00 0.00 0.00 0.00 0.00 0.00 0.00 0.00 0.00 0.00 0.00 0.00 0.00 0.00 0.00 0.00 0.00 0.00 0.00 0.00 0.00 0.00 0.00 0.00 0.00 0.00 0.00 0.00 0.00 0.00
0.00 0.00 0.00 0.00 0.00 0.00 0.00 0.00 0.00 0.00 0.00 0.00 0.00 0.00 0.00 0.00 0.00 0.00 0.00 0.00 0.00 0.00 0.00 0.00 0.00 0.01 0.00 0.01 0.01 0.01 0.01 0.01 0.01 0.00 0.00 0.00 0.00 0.00 0.00 0.00 0.00 0.00 0.00
0.00 0.00 0.00 0.00 0.00 0.00 0.00 0.00 0.00 0.00 0.00 0.00 0.00 0.00 0.00 0.00 0.00 0.00 0.00 0.00 0.00 0.00 0.01 0.01 0.02 0.01 0.02 0.01 0.01 0.00 0.00 0.01 0.01 0.00 0.01 0.01 0.00 0.00 0.00 0.00 0.00 0.00 0.00
0.00 0.00 0.00 0.00 0.00 0.00 0.00 0.00 0.00 0.00 0.00 0.00 0.00 0.00 0.00 0.00 0.00 0.00 0.00 0.00 0.00 0.00 0.00 0.02 0.03 0.01 0.03 0.02 0.02 0.01 0.01 0.01 0.00 0.01 0.01 0.05 0.00 0.00 0.00 0.00 0.00 0.00 0.00
0.00 0.00 0.00 0.00 0.00 0.00 0.00 0.00 0.00 0.00 0.00 0.00 0.00 0.00 0.00 0.00 0.00 0.00 0.00 0.00 0.00 0.00 0.00 0.01 0.01 0.02 0.02 0.03 0.05 0.05 0.04 0.05 0.03 0.01 0.00 0.02 0.00 0.00 0.00 0.00 0.00 0.00 0.00
0.00 0.00 0.00 0.00 0.00 0.00 0.00 0.00 0.00 0.00 0.00 0.00 0.00 0.00 0.00 0.00 0.00 0.00 0.00 0.00 0.00 0.00 0.00 0.00 0.00 0.00 0.00 0.01 0.02 0.05 0.05 0.06 0.06 0.02 0.00 0.02 0.01 0.03 0.06 0.00 0.00 0.00 0.00
MSLP
1019.42 1019.42 1019.48 1019.56 1019.68 1019.57 1019.54 1019.45 1019.27 1019.03 1018.82 1018.57 1018.35 1018.28 1018.24 1018.18 1018.13 1018.48 1018.59 1018.57 1018.70 1018.71 1018.66 1018.55 1018.38 1018.18 1017.94 1017.80 1017.61 1017.46 1017.17 1017.02 1016.83 1016.60 1016.29 1016.09 1015.89 1015.62 1015.41 1015.14 1015.03 1014.91 1014.66
1019.67 1019.66 1019.75 1019.82 1019.86 1019.80 1019.71 1019.64 1019.56 1019.42 1019.16 1018.94 1018.77 1018.49 1018.44 1018.34 1018.25 1018.28 1018.64 1018.75 1018.71 1018.77 1018.72 1018.78 1018.74 1018.57 1018.32 1018.14 1017.85 1017.71 1017.43 1017.20 1017.02 1016.84 1016.54 1016.34 1016.07 1015.78 1015.54 1015.39 1015.25 1015.08 1014.82
1019.81 1019.81 1019.91 1020.07 1020.01 1019.88 1019.80 1019.77 1019.65 1019.52 1019.50 1019.21 1019.24 1018.86 1018.73 1018.59 1018.52 1018.49 1018.43 1018.67 1018.81 1018.90 1018.98 1018.88 1018.84 1018.77 1018.66 1018.46 1018.14 1017.81 1017.63 1017.36 1017.16 1016.93 1016.66 1016.53 1016.29 1015.90 1015.63 1015.56 1015.41 1015.22 1015.02
1019.90 1020.01 1020.06 1020.14 1020.05 1020.05 1020.01 1019.99 1020.05 1020.01 1019.91 1019.75 1019.57 1019.22 1018.91 1018.75 1018.58 1018.59 1018.53 1018.55 1018.67 1018.82 1019.01 1018.99 1018.85 1018.80 1018.73 1018.53 1018.28 1018.03 1017.72 1017.54 1017.28 1017.03 1016.73 1016.56 1016.36 1016.12 1015.88 1015.67 1015.51 1015.32 1015.12
1020.08 1020.19 1020.24 1020.22 1020.12 1020.16 1020.29 1020.34 1020.38 1020.27 1020.26 1020.05 1019.72 1019.26 1018.99 1019.02 1018.80 1018.52 1018.70 1018.68 1018.62 1018.80 1018.88 1018.91 1018.81 1018.66 1018.65 1018.54 1018.28 1018.03 1017.82 1017.61 1017.40 1017.17 1016.85 1016.61 1016.34 1016.06 1015.90 1015.74 1015.54 1015.33 1015.16
1020.21 1020.29 1020.40 1020.42 1020.33 1020.51 1020.66 1020.58 1020.69 1020.54 1020.37 1020.29 1019.87 1019.42 1019.04 1018.83 1018.76 1018.79 1018.68 1018.54 1018.57 1018.57 1018.77 1018.74 1018.74 1018.63 1018.39 1018.39 1018.22 1017.91 1017.87 1017.65 1017.44 1017.12 1016.88 1016.57 1016.36 1016.12 1015.84 1015.59 1015.53 1015.46 1015.16
1020.30 1020.29 1020.53 1020.66 1020.69 1020.84 1020.90 1020.96 1020.92 1020.90 1020.86 1020.44 1020.26 1019.84 1019.15 1018.92 1019.02 1018.89 1018.67 1018.63 1018.61 1018.49 1018.44 1018.43 1018.43 1018.40 1018.29 1018.11 1018.00 1017.85 1017.78 1017.63 1017.43 1017.12 1016.81 1016.60 1016.43 1016.04 1015.81 1015.56 1015.40 1015.34 1015.14
1020.56 1020.41 1020.65 1020.90 1020.97 1021.12 1021.07 1021.28 1021.36 1021.48 1021.22 1020.96 1021.12 1020.91 1020.39 1019.85 1019.54 1019.13 1018.90 1018.89 1018.81 1018.61 1018.58 1018.31 1018.21 1018.12 1018.05 1017.98 1017.81 1017.70 1017.58 1017.52 1017.46 1017.17 1016.86 1016.61 1016.36 1016.03 1015.55 1015.44 1015.32 1015.10 1014.88
1020.78 1020.59 1020.82 1020.89 1021.18 1021.33 1021.37 1021.47 1021.54 1021.60 1021.75 1021.37 1021.13 1021.33 1021.38 1021.37 1020.69 1019.56 1019.28 1019.20 1018.98 1018.77 1018.47 1018.25 1018.04 1017.87 1017.81 1017.75 1017.60 1017.58 1017.45 1017.45 1017.36 1017.06 1016.79 1016.55 1016.33 1016.09 1015.56 1015.16 1015.08 1015.04 1014.87
1021.04 1020.82 1021.01 1020.92 1021.38 1021.52 1021.67 1021.60 1021.49 1021.67 1021.80 1021.89 1021.54 1021.37 1021.49 1021.65 1021.54 1021.07 1019.96 1019.55 1019.24 1018.98 1018.87 1018.46 1018.16 1017.87 1017.67 1017.52 1017.33 1017.19 1017.20 1017.16 1017.10 1016.91 1016.61 1016.27 1015.99 1015.78 1015.58 1015.25 1014.99 1014.95 1014.85
1020.97 1021.19 1021.21 1021.25 1021.55 1021.78 1021.83 1021.87 1021.86 1021.83 1021.94 1022.00 1022.00 1021.82 1021.54 1021.41 1021.32 1021.69 1021.05 1020.11 1019.75 1019.31 1018.90 1018.60 1018.14 1017.68 1017.44 1017.37 1017.33 1017.24 1017.08 1017.04 1016.85 1016.60 1016.33 1016.10 1015.70 1015.37 1015.16 1014.96 1014.93 1014.92 1014.68
1021.32 1021.38 1021.27 1021.61 1021.69 1021.94 1022.01 1021.86 1021.93 1021.83 1021.87 1021.90 1021.80 1021.80 1021.83 1021.77 1021.65 1021.65 1021.34 1020.74 1020.33 1019.26 1018.95 1018.48 1018.21 1017.58 1017.16 1016.96 1016.78 1016.62 1016.64 1016.70 1016.62 1016.49 1016.18 1015.82 1015.53 1015.22 1015.07 1014.83 1014.64 1014.57 1014.52
1021.38 1021.63 1021.56 1021.84 1021.83 1022.02 1022.05 1021.93 1021.89 1021.84 1021.72 1021.83 1021.70 1021.84 1021.63 1021.57 1021.39 1021.28 1021.24 1020.84 1020.32 1019.73 1019.22 1018.46 1018.09 1017.66 1017.05 1016.89 1016.74 1016.57 1016.43 1016.31 1016.19 1016.06 1015.87 1015.49 1015.22 1015.17 1015.14 1014.86 1014.52 1014.28 1014.16
1021.60 1021.71 1021.68 1021.88 1021.99 1022.05 1022.13 1022.05 1021.98 1021.88 1021.68 1021.72 1021.77 1021.78 1021.67 1021.55 1021.31 1021.18 1021.08 1021.01 1020.26 1019.89 1019.54 1018.96 1018.11 1017.72 1017.39 1017.21 1017.04 1016.73 1016.47 1016.08 1015.84 1015.62 1015.40 1015.15 1015.00 1014.91 1014.83 1014.67 1014.40 1014.10 1013.88
1021.51 1021.79 1021.86 1022.13 1022.22 1022.08 1022.12 1022.27 1022.13 1021.98 1021.95 1021.88 1021.81 1021.66 1021.60 1021.42 1021.28 1021.10 1020.96 1020.86 1020.66 1019.79 1019.32 1018.89 1018.51 1017.71 1017.44 1017.26 1016.97 1016.71 1016.37 1015.97 1015.57 1015.22 1015.01 1014.81 1014.59 1014.42 1014.29 1014.13 1013.99 1013.87 1013.65
1021.64 1021.86 1022.17 1022.34 1022.39 1022.33 1022.22 1022.26 1022.35 1022.27 1022.15 1022.03 1021.90 1021.82 1021.58 1021.40 1021.23 1021.04 1020.78 1020.61 1020.48 1020.12 1018.95 1018.90 1018.51 1017.98 1017.47 1016.92 1016.66 1016.42 1016.17 1015.80 1015.44 1015.04 1014.73 1014.44 1014.05 1013.79 1013.62 1013.51 1013.50 1013.36 1013.27
1021.92 1022.10 1022.34 1022.55 1022.56 1022.53 1022.51 1022.59 1022.60 1022.29 1022.21 1022.20 1021.99 1021.97 1021.75 1021.37 1021.18 1020.94 1020.68 1020.48 1020.31 1019.99 1019.16 1018.34 1018.10 1017.77 1017.46 1017.09 1016.63 1016.22 1015.87 1015.59 1015.27 1014.89 1014.59 1014.24 1013.87 1013.42 1013.17 1013.11 1012.98 1012.87 1012.69
1022.04 1022.29 1022.45 1022.60 1022.63 1022.70 1022.71 1022.64 1022.62 1022.36 1022.30 1022.27 1022.10 1021.88 1021.71 1021.33 1021.04 1020.76 1020.51 1020.34 1020.10 1019.78 1019.35 1018.28 1018.03 1017.73 1017.30 1016.87 1016.70 1016.52 1015.95 1015.43 1015.16 1014.75 1014.30 1013.84 1013.43 1012.90 1012.56 1012.42 1012.34 1012.22 1012.17
1022.54 1022.50 1022.55 1022.74 1022.79 1022.75 1022.62 1022.43 1022.29 1022.29 1022.37 1022.22 1022.02 1021.76 1021.49 1021.05 1020.79 1020.37 1020.15 1020.07 1019.86 1019.53 1019.24 1018.56 1017.72 1017.43 1016.98 1016.76 1016.49 1016.24 1015.85 1015.20 1014.61 1014.14 1013.84 1013.22 1012.95 1012.54 1012.11 1011.77 1011.54 1011.41 1011.25
1022.71 1022.61 1022.84 1022.88 1022.81 1022.61 1022.30 1022.12 1022.09 1022.24 1022.30 1021.96 1021.72 1021.45 1020.97 1020.47 1020.12 1019.88 1019.77 1019.77 1019.40 1019.27 1019.02 1018.53 1017.79 1017.31 1016.99 1016.57 1016.45 1016.10 1015.53 1015.02 1014.39 1013.80 1013.29 1013.05 1012.61 1012.02 1011.56 1011.10 1010.75 1010.59 1010.55
1022.67 1022.78 1022.82 1022.78 1022.61 1022.28 1022.10 1021.88 1021.85 1021.88 1021.94 1021.69 1021.35 1020.88 1020.36 1019.92 1019.63 1019.40 1019.19 1019.05 1019.03 1018.81 1018.52 1018.22 1017.78 1017.14 1016.61 1016.17 1016.13 1015.89 1015.39 1014.86 1014.27 1013.88 1013.10 1012.61 1012.49 1012.05 1011.37 1010.75 1010.29 1010.04 1009.87
1022.69 1022.80 1022.78 1022.61 1022.40 1022.17 1021.60 1021.45 1021.52 1021.48 1021.42 1021.24 1020.89 1020.49 1020.07 1019.55 1019.08 1018.80 1018.59 1018.40 1018.22 1017.93 1017.85 1017.66 1017.23 1016.82 1016.25 1016.03 1015.82 1015.54 1015.03 1014.49 1013.98 1013.38 1013.03 1012.27 1012.37 1011.72 1011.41 1010.80 1010.05 1009.44 1009.12
1022.76 1022.67 1022.59 1022.31 1022.03 1021.72 1021.43 1021.16 1020.94 1020.81 1020.81 1020.80 1020.57 1020.13 1019.54 1019.08 1018.67 1018.32 1018.05 1017.82 1017.65 1017.47 1017.24 1016.93 1016.57 1016.14 1015.76 1015.30 1015.03 1014.99 1014.66 1014.32 1013.80 1013.03 1012.99 1011.99 1012.08 1011.20 1010.91 1010.27 1009.51 1008.76 1008.42
1022.57 1022.42 1022.25 1021.92 1021.66 1021.14 1020.76 1020.55 1020.48 1020.34 1020.30 1020.12 1019.90 1019.47 1018.99 1018.46 1018.07 1017.80 1017.56 1017.33 1017.17 1017.06 1016.79 1016.35 1015.88 1015.37 1015.06 1014.59 1014.46 1014.29 1014.22 1013.94 1013.29 1012.84 1012.74 1011.98 1011.75 1010.92 1010.34 1009.71 1009.14 1008.38 1007.85
1022.22 1021.99 1021.57 1021.19 1020.94 1020.57 1020.26 1020.03 1019.83 1019.67 1019.58 1019.39 1019.20 1018.72 1018.29 1017.91 1017.56 1017.26 1017.01 1016.94 1016.78 1016.50 1016.11 1015.69 1015.20 1014.78 1014.39 1013.94 1013.61 1013.67 1013.80 1013.74 1013.11 1012.68 1012.53 1012.04 1011.31 1010.77 1010.10 1009.10 1008.16 1007.72 1007.33
1021.44 1021.25 1021.03 1020.74 1020.28 1019.90 1019.58 1019.36 1019.03 1018.93 1018.96 1018.71 1018.43 1018.10 1017.77 1017.40 1017.08 1016.81 1016.60 1016.66 1016.43 1016.10 1015.77 1015.28 1014.88 1014.36 1014.02 1013.59 1013.06 1013.08 1013.24 1013.30 1013.07 1012.28 1012.04 1012.18 1011.52 1011.38 1009.93 1008.86 1008.35 1008.04 1007.67
Thickness
5688 5688 5687 5685 5684 5684 5684 5684 5684 5684 5684 5684 5684 5683 5681 5679 5677 5671 5668 5664 5659 5655 5652 5650 5648 5646 5645 5642 5641 5639 5637 5634 5632 5630 5629 5627 5625 5623 5621 5618 5615 5611 5608
5682 5681 5680 5679 5679 5678 5678 5677 5677 5677 5677 5677 5676 5676 5675 5673 5671 5670 5664 5659 5656 5652 5648 5645 5642 5640 5638 5636 5636 5634 5632 5630 5627 5625 5624 5622 5621 5619 5616 5613 5610 5607 5605
5676 5676 5675 5674 5673 5673 5672 5671 5671 5671 5670 5670 5669 5669 5668 5667 5665 5662 5660 5656 5651 5647 5642 5640 5637 5635 5633 5631 5630 5629 5628 5626 5624 5622 5620 5618 5616 5616 5614 5609 5607 5605 5603
5670 5670 5670 5668 5668 5667 5666 5666 5665 5663 5662 5661 5661 5662 5662 5660 5659 5656 5653 5651 5648 5644 5638 5634 5633 5630 5628 5627 5625 5624 5624 5622 5620 5618 5617 5615 5613 5612 5610 5608 5605 5603 5602
5664 5664 5663 5662 5662 5661 5659 5658 5657 5656 5654 5654 5655 5656 5656 5653 5652 5651 5647 5645 5642 5638 5634 5629 5627 5626 5625 5623 5622 5620 5619 5618 5616 5615 5614 5612 5611 5610 5607 5606 5604 5603 5601
5657 5657 5655 5654 5654 5653 5651 5650 5648 5648 5648 5646 5649 5650 5649 5649 5646 5644 5642 5640 5637 5633 5628 5625 5623 5622 5621 5619 5617 5617 5615 5614 5612 5611 5611 5610 5608 5607 5606 5605 5603 5601 5601
5649 5650 5648 5646 5645 5643 5642 5641 5639 5638 5637 5639 5638 5638 5643 5641 5637 5636 5635 5632 5630 5627 5624 5621 5618 5617 5616 5615 5614 5613 5611 5609 5608 5607 5607 5606 5604 5605 5603 5603 5603 5601 5600
5640 5642 5641 5637 5635 5634 5633 5630 5628 5627 5627 5627 5624 5623 5623 5627 5626 5627 5627 5625 5622 5619 5616 5615 5613 5612 5611 5610 5610 5608 5607 5605 5603 5603 5602 5601 5601 5601 5602 5601 5600 5600 5601
5631 5633 5631 5630 5626 5624 5623 5621 5619 5618 5614 5616 5616 5611 5605 5602 5607 5616 5616 5614 5612 5611 5610 5609 5608 5607 5606 5605 5604 5603 5602 5600 5599 5598 5597 5597 5596 5596 5598 5599 5598 5597 5597
5619 5623 5622 5622 5617 5615 5613 5612 5611 5608 5605 5602 5603 5603 5600 5596 5592 5592 5599 5602 5602 5602 5601 5601 5601 5601 5601 5600 5599 5597 5595 5594 5592 5593 5593 5593 5593 5593 5593 5594 5594 5593 5594
5612 5611 5611 5611 5608 5605 5603 5601 5599 5597 5594 5592 5590 5589 5589 5587 5585 5580 5585 5586 5589 5590 5592 5592 5594 5595 5594 5593 5593 5591 5590 5588 5587 5586 5587 5587 5588 5589 5590 5590 5589 5589 5589
5602 5601 5602 5599 5599 5594 5592 5591 5588 5588 5585 5582 5581 5579 5576 5574 5572 5569 5570 5574 5575 5581 5582 5584 5585 5587 5587 5586 5585 5584 5583 5582 5581 5579 5580 5581 5582 5583 5583 5584 5584 5584 5584
5594 5592 5592 5588 5587 5583 5580 5579 5578 5576 5575 5572 5571 5567 5566 5563 5562 5561 5559 5562 5564 5568 5570 5571 5574 5575 5578 5577 5576 5574 5573 5572 5572 5572 5572 5574 5575 5575 5575 5576 5578 5579 5579
5584 5582 5581 5577 5575 5572 5569 5567 5565 5563 5563 5561 5557 5555 5552 5550 5550 5548 5547 5545 5553 5554 5555 5556 5559 5560 5561 5560 5559 5561 5562 5562 5562 5562 5563 5564 5565 5566 5566 5567 5568 5570 5572
5575 5572 5570 5565 5562 5561 5557 5553 5552 5550 5548 5546 5544 5542 5540 5537 5535 5533 5532 5531 5531 5539 5542 5542 5542 5544 5544 5544 5543 5544 5546 5549 5549 5550 5550 5551 5553 5554 5555 5556 5557 5558 5561
5564 5561 5556 5551 5547 5545 5544 5541 5537 5534 5533 5530 5529 5526 5524 5521 5520 5518 5517 5516 5514 5517 5527 5524 5525 5526 5527 5527 5526 5527 5528 5530 5532 5534 5534 5536 5539 5542 5544 5546 5546 5548 5549
5550 5547 5541 5536 5533 5531 5528 5524 5521 5521 5518 5514 5511 5508 5506 5505 5503 5501 5500 5498 5497 5496 5504 5512 5508 5507 5507 5507 5508 5507 5508 5509 5512 5514 5515 5517 5520 5524 5527 5531 5532 5534 5537
5536 5531 5527 5523 5520 5515 5512 5509 5506 5504 5501 5497 5493 5490 5487 5487 5486 5483 5481 5479 5478 5476 5479 5488 5487 5485 5484 5485 5484 5484 5486 5486 5487 5490 5493 5496 5500 5506 5510 5512 5515 5517 5520
5519 5516 5513 5508 5503 5500 5497 5494 5492 5489 5483 5480 5476 5473 5471 5470 5468 5465 5463 5460 5457 5456 5454 5458 5464 5460 5460 5458 5457 5457 5458 5461 5463 5464 5466 5473 5476 5481 5486 5492 5497 5501 5505
5504 5502 5496 5492 5488 5485 5483 5481 5477 5472 5466 5464 5459 5455 5454 5453 5451 5448 5445 5439 5437 5433 5429 5430 5434 5434 5430 5430 5423 5426 5430 5432 5436 5434 5436 5438 5441 5449 5457 5465 5473 5480 5484
5490 5485 5480 5476 5474 5472 5467 5463 5459 5454 5449 5446 5442 5440 5438 5437 5434 5430 5426 5420 5413 5409 5404 5401 5402 5403 5400 5399 5390 5390 5390 5392 5396 5392 5397 5401 5399 5408 5418 5428 5439 5450 5457
5475 5470 5465 5462 5458 5454 5452 5446 5440 5436 5432 5428 5426 5423 5419 5417 5413 5409 5404 5397 5390 5383 5377 5370 5369 5365 5364 5355 5348 5345 5343 5347 5352 5355 5347 5364 5351 5365 5370 5381 5395 5412 5425
5459 5455 5450 5447 5442 5437 5432 5428 5425 5421 5416 5410 5404 5400 5397 5392 5387 5381 5377 5373 5365 5355 5345 5338 5333 5332 5325 5323 5316 5313 5309 5309 5316 5323 5315 5331 5329 5340 5342 5354 5368 5381 5393
5444 5439 5434 5431 5425 5422 5418 5414 5409 5404 5397 5392 5386 5381 5374 5369 5361 5354 5350 5345 5337 5328 5319 5313 5306 5305 5301 5300 5294 5288 5288 5288 5295 5299 5294 5303 5309 5318 5323 5335 5345 5362 5378
5429 5424 5421 5417 5412 5409 5402 5398 5392 5386 5382 5374 5365 5358 5350 5342 5336 5329 5323 5315 5310 5305 5298 5295 5292 5288 5287 5285 5282 5273 5270 5267 5272 5281 5280 5282 5295 5300 5308 5322 5333 5344 5355
5417 5412 5408 5403 5399 5394 5387 5380 5372 5364 5358 5353 5348 5337 5326 5317 5310 5303 5295 5289 5287 5285 5281 5281 5280 5278 5275 5275 5272 5265 5259 5257 5255 5261 5269 5266 5277 5278 5295 5308 5318 5327 5337